| Date | Temp | Humidity | Rainfall | Dew Point | Wind Direction | Wind Speed | Wind Pressure | Condition | Visibility |
|---|---|---|---|---|---|---|---|---|---|
| 2025-04-26 21:01:17 | 30 | 76 | 0.00 | 25 | 040 | 11.4 | 1010 | Partly Cloudy (Night) | 10 km |
| 2025-04-26 19:59:49 | 30 | 75 | 0.00 | 25 | 030 | 9.5 | 1009 | Partly Cloudy (Night) | 10 km |
| 2025-04-26 19:01:08 | 30 | 75 | 0.0 | 25 | 040 | 11.4 | 1008 | Partly Cloudy (Night) | 10 km |
| 2025-04-26 18:27:05 | 31 | 73 | 0.00 | 25 | 020 | 13.3 | 1008 | Partly Cloudy (Night) | 10 km |
| 2025-04-26 17:01:51 | 31 | 69 | 0.00 | 25 | 350 | 15.2 | 1008 | Cloudy | 20 KM |
| 2025-04-26 16:01:29 | 32 | 63 | 0.00 | 24 | 340 | 13.3 | 1008 | Cloudy | 20 KM |
| 2025-04-26 15:00:51 | 31 | 68 | 0.00 | 25 | 340 | 13.3 | 1008 | Cloudy | 20 KM |
| 2025-04-26 14:04:24 | 32 | 63 | 0.00 | 24 | 340 | 15.2 | 1009 | Distant showers | 15 KM |
| 2025-04-26 12:58:34 | 33 | 60 | 0.00 | 24 | 040 | 17.1 | 1010 | Distant showers | 15KM |
| 2025-04-26 11:59:11 | 32 | 62 | 0.00 | 24 | 040 | 9.5 | 1011 | Partly Cloudy (Day) | 20KM |
| 2025-04-26 10:59:16 | 31 | 62 | 0.00 | 24 | 090 | 7.6 | 1012 | Partly Cloudy (Day) | 20KM |
| 2025-04-26 09:59:10 | 30 | 67 | 24 | 100 | 11.4 | 1012 | Partly Cloudy (Day) | 20 KM | |
| 2025-04-26 08:58:26 | 30 | 72 | 24 | 120 | 7.6 | 1012 | Partly Cloudy (Day) | 20 KM | |
| 2025-04-26 07:59:04 | 28 | 77 | 24 | 080 | 5.7 | 1012 | Partly Cloudy (Day) | 20 km | |
| 2025-04-26 06:59:52 | 27 | 87 | 24 | 070 | 1.9 | 1011 | Partly Cloudy (Day) | 10 km | |
| 2025-04-26 06:00:08 | 25 | 93 | 24 | 080 | 1.9 | 1010 | Partly Cloudy (Day) | 10 km | |
| 2025-04-26 05:00:09 | 25 | 94 | 25 | 140 | 1.9 | 1010 | Partly Cloudy (Night) | 10 km | |
| 2025-04-26 03:58:08 | 26 | 95 | 25 | 190 | 7.6 | 1010 | Partly Cloudy (Night) | 10 km | |
| 2025-04-26 02:58:28 | 26` | 95 | 25 | 140 | 1.9 | 1010 | Partly Cloudy (Night) | 10 km | |
| 2025-04-26 01:57:54 | 26 | 93 | 25 | 170 | 1.9 | 1010 | Partly Cloudy (Night) | 10 | |
| 2025-04-26 00:59:30 | 26 | 92 | 25 | 160 | 3.8 | 1011 | Partly Cloudy (Night) | 10 KM | |
| 2025-04-25 23:56:36 | 26 | 91 | 25 | 210 | 1.9 | 1012 | Partly Cloudy (Night) | 10 KM | |
| 2025-04-25 22:56:47 | 26 | 89 | 25 | 120 | 3.8 | 1012 | Partly Cloudy (Night) | 10 KM | |
| 2025-04-25 21:58:32 | 27 | 88 | 25 | 060 | 1.9 | 1011 | Partly Cloudy (Night) | 10 KM | |
| 2025-04-25 20:57:30 | 27 | 88 | 0.0 | 25 | 080 | 3.8 | 1011 | Partly Cloudy (Night) | 10 KM |